Weather History for Worland, WY

Change the Weather History Date:

Sunday, October 20, 2013

  Actual Average Record
Temperature  
Mean Temperature 44 °F 44 °F  
Max Temperature 54 °F 59 °F 80 °F (2003)
Min Temperature 33 °F 29 °F 19 °F (1982)
Degree Days  
Heating Degree Days 21 21  
Month to date heating degree days 461 347  
Since 1 July heating degree days 607 604  
Cooling Degree Days 0 0  
Month to date cooling degree days 0 0  
Year to date cooling degree days 852 535  
Moisture  
Dew Point 34 °F    
Average Humidity 67    
Maximum Humidity 92    
Minimum Humidity 41    
Precipitation  
Precipitation T in 0.02 in 0.43 in (2007)
Month to date precipitation 1.65 0.53  
Year to date precipitation 7.49 6.83  
Sea Level Pressure  
Sea Level Pressure 30.07 in    
Wind  
Wind Speed 8 mph (NW)    
Max Wind Speed 22 mph    
Max Gust Speed 30 mph    
Visibility 10 miles    
Events Rain    
T = Trace of Precipitation, MM = Missing Value Source: NWS Daily Summary

Daily Weather History Graph

Daily Weather History Graph

Search for Another Location

Airport:

Trip Planner

Search our weather history database for the weather conditions in past years. The results will help you decide how hot, cold, wet, or windy it might be!

Date:

Astronomy

Oct. 20, 2013 Rise Set
Actual Time 7:33 AM MDT 6:19 PM MDT
Civil Twilight 7:03 AM MDT 6:48 PM MDT
Nautical Twilight 6:30 AM MDT 7:22 PM MDT
Astronomical Twilight 5:56 AM MDT 7:55 PM MDT
Moon 7:25 PM MDT (10/20) 9:17 AM MDT (10/20)
Length of Visible Light 11h 44m
Length of Day
10h 46m
Full, 97% of the Moon is Illuminated
Oct 20
Full
Oct 26
Last Quarter
Nov 3
New
Nov 9
First Quarter
Nov 17
Full

Hourly Weather History & Observations

Time (MDT) Temp. Windchill Dew Point Humidity Pressure Visibility Wind Dir Wind Speed Gust Speed Precip Events Conditions
12:53 AM 36.0 °F - 33.1 °F 89% 29.98 in 10.0 mi Calm Calm - N/A   Clear
1:53 AM 37.9 °F 34.4 °F 34.0 °F 86% 29.98 in 10.0 mi SSW 4.6 mph - N/A   Overcast
2:53 AM 43.0 °F 38.2 °F 37.9 °F 82% 29.99 in 10.0 mi NNW 8.1 mph - N/A   Overcast
3:49 AM 42.8 °F 35.4 °F 37.4 °F 81% 30.03 in 10.0 mi NNW 15.0 mph - 0.00 in Rain Light Rain
3:53 AM 42.1 °F 35.2 °F 37.9 °F 85% 30.01 in 10.0 mi NW 12.7 mph - 0.00 in Rain Light Rain
4:18 AM 42.8 °F 36.2 °F 37.4 °F 81% 30.03 in 10.0 mi NW 12.7 mph - 0.00 in   Overcast
4:53 AM 41.0 °F 32.8 °F 36.0 °F 82% 30.01 in 10.0 mi NW 16.1 mph 21.9 mph 0.00 in   Overcast
5:53 AM 41.0 °F 33.1 °F 37.0 °F 86% 30.03 in 10.0 mi WNW 15.0 mph - N/A   Overcast
6:53 AM 42.1 °F 37.1 °F 35.1 °F 76% 30.07 in 10.0 mi WNW 8.1 mph - N/A   Overcast
7:53 AM 42.1 °F - 35.1 °F 76% 30.08 in 10.0 mi Calm Calm - N/A   Overcast
8:53 AM 43.0 °F 39.5 °F 36.0 °F 76% 30.11 in 10.0 mi West 5.8 mph - N/A   Overcast
9:53 AM 44.1 °F 39.0 °F 36.0 °F 73% 30.11 in 10.0 mi West 9.2 mph - N/A   Scattered Clouds
10:53 AM 48.9 °F - 35.1 °F 59% 30.09 in 10.0 mi WNW 11.5 mph - N/A   Mostly Cloudy
11:53 AM 51.1 °F - 33.1 °F 50% 30.08 in 10.0 mi NW 15.0 mph - N/A   Mostly Cloudy
12:53 PM 50.0 °F - 32.0 °F 50% 30.09 in 10.0 mi North 11.5 mph - N/A   Mostly Cloudy
1:53 PM 50.0 °F - 30.9 °F 48% 30.07 in 10.0 mi NNW 13.8 mph 20.7 mph N/A   Mostly Cloudy
2:53 PM 51.1 °F - 30.9 °F 46% 30.05 in 10.0 mi NNW 13.8 mph - N/A   Overcast
3:53 PM 52.0 °F - 30.9 °F 45% 30.04 in 10.0 mi North 10.4 mph - N/A   Overcast
4:53 PM 51.1 °F - 28.9 °F 43% 30.06 in 10.0 mi NNW 12.7 mph - N/A   Mostly Cloudy
5:53 PM 50.0 °F - 30.9 °F 48% 30.07 in 10.0 mi North 5.8 mph - N/A   Mostly Cloudy
6:53 PM 42.1 °F - 32.0 °F 67% 30.10 in 10.0 mi Calm Calm - N/A   Clear
7:53 PM 37.0 °F - 30.9 °F 79% 30.12 in 10.0 mi Calm Calm - N/A   Scattered Clouds
8:53 PM 37.9 °F - 33.1 °F 83% 30.12 in 10.0 mi Calm Calm - N/A   Mostly Cloudy
9:53 PM 37.0 °F 31.0 °F 32.0 °F 82% 30.13 in 10.0 mi SSW 8.1 mph - N/A   Clear
10:53 PM 37.9 °F 33.5 °F 33.1 °F 83% 30.12 in 10.0 mi South 5.8 mph - N/A   Mostly Cloudy
11:53 PM 35.1 °F 30.1 °F 30.9 °F 85% 30.13 in 10.0 mi South 5.8 mph - N/A   Clear